• în Republica Moldova
  • Lista ţărilor
  • Pe 7 zile
  • Temperatura apei
  • Hartă satelitară
  • Meteo pe hartă
  • Widget-uri
  • user-avatar
    Intrare

    Meteo pe oră la Elbasan

    Astăzi, 21 Ianuarie, Luni

    Timp Temperatura Precipitaţii Vânt Presiune Umiditate
    00:00 +5°C° 0 mm 2 m/s 734 mmHg 81%
    01:00 +5°C° 0 mm 2 m/s 734 mmHg 79%
    02:00 +4°C° 0 mm 2 m/s 734 mmHg 78%
    03:00 +4°C° 0 mm 2 m/s 734 mmHg 78%
    04:00 +4°C° 0 mm 2 m/s 734 mmHg 77%
    05:00 +4°C° 0 mm 2 m/s 734 mmHg 77%
    06:00 +4°C° 0 mm 2 m/s 734 mmHg 76%
    07:00 +4°C° 0 mm 2 m/s 734 mmHg 76%
    08:00 +5°C° 0 mm 2 m/s 734 mmHg 74%
    09:00 +7°C° 0 mm 2 m/s 734 mmHg 72%
    10:00 +9°C° 0 mm 2 m/s 734 mmHg 70%
    11:00 +10°C° 0 mm 1 m/s 734 mmHg 67%
    12:00 +11°C° 0 mm 1 m/s 734 mmHg 64%
    13:00 +12°C° 0 mm 1 m/s 734 mmHg 61%
    14:00 +11°C° 0 mm 1 m/s 734 mmHg 65%
    15:00 +11°C° 0 mm 1 m/s 734 mmHg 68%
    16:00 +9°C° 0 mm 2 m/s 734 mmHg 71%
    17:00 +8°C° 0 mm 2 m/s 734 mmHg 74%
    18:00 +7°C° 0 mm 2 m/s 734 mmHg 76%
    19:00 +5°C° 0 mm 3 m/s 734 mmHg 78%
    20:00 +5°C° 0 mm 3 m/s 734 mmHg 78%
    21:00 +5°C° 0 mm 3 m/s 734 mmHg 78%
    22:00 +5°C° 0 mm 3 m/s 734 mmHg 78%
    23:00 +5°C° 0 mm 3 m/s 734 mmHg 78%

    Mâine, 22 Ianuarie, Marţi

    Timp Temperatura Precipitaţii Vânt Presiune Umiditate
    00:00 +5°C° 0 mm 3 m/s 734 mmHg 79%
    01:00 +5°C° 0 mm 3 m/s 733 mmHg 79%
    02:00 +5°C° 0.1 mm 3 m/s 733 mmHg 79%
    03:00 +5°C° 0.1 mm 3 m/s 732 mmHg 80%
    04:00 +5°C° 0.1 mm 3 m/s 732 mmHg 80%
    05:00 +5°C° 0.1 mm 3 m/s 732 mmHg 80%
    06:00 +5°C° 0.1 mm 3 m/s 731 mmHg 80%
    07:00 +5°C° 0.1 mm 3 m/s 731 mmHg 80%
    08:00 +7°C° 0.1 mm 3 m/s 731 mmHg 77%
    09:00 +8°C° 0.1 mm 3 m/s 731 mmHg 75%
    10:00 +9°C° 0.1 mm 3 m/s 731 mmHg 73%
    11:00 +9°C° 0.2 mm 3 m/s 730 mmHg 73%
    12:00 +10°C° 0.2 mm 3 m/s 729 mmHg 73%
    13:00 +10°C° 0.2 mm 3 m/s 729 mmHg 74%
    14:00 +9°C° 0.5 mm 3 m/s 728 mmHg 76%
    15:00 +9°C° 0.5 mm 2 m/s 728 mmHg 78%
    16:00 +8°C° 0.5 mm 2 m/s 727 mmHg 80%
    17:00 +8°C° 1.1 mm 2 m/s 727 mmHg 82%
    18:00 +8°C° 1.1 mm 2 m/s 727 mmHg 84%
    19:00 +7°C° 1.1 mm 2 m/s 726 mmHg 86%
    20:00 +7°C° 0.5 mm 2 m/s 726 mmHg 86%
    21:00 +7°C° 0.5 mm 2 m/s 726 mmHg 87%
    22:00 +7°C° 0.5 mm 2 m/s 727 mmHg 88%
    23:00 +6°C° 0.4 mm 2 m/s 726 mmHg 90%

    Poimâine, 23 Ianuarie, Miercuri

    Timp Temperatura Precipitaţii Vânt Presiune Umiditate
    00:00 +6°C° 0.4 mm 2 m/s 726 mmHg 92%
    01:00 +6°C° 0.4 mm 2 m/s 726 mmHg 94%
    02:00 +5°C° 0.3 mm 2 m/s 726 mmHg 93%
    03:00 +5°C° 0.3 mm 2 m/s 726 mmHg 93%
    04:00 +5°C° 0.3 mm 2 m/s 726 mmHg 92%
    05:00 +5°C° 0.1 mm 2 m/s 726 mmHg 91%
    06:00 +4°C° 0.1 mm 2 m/s 726 mmHg 90%
    07:00 +4°C° 0.1 mm 2 m/s 726 mmHg 88%
    08:00 +5°C° 0.1 mm 2 m/s 726 mmHg 84%
    09:00 +7°C° 0.1 mm 3 m/s 726 mmHg 81%
    10:00 +8°C° 0.1 mm 3 m/s 726 mmHg 77%
    11:00 +9°C° 0.1 mm 3 m/s 726 mmHg 72%
    12:00 +9°C° 0.1 mm 3 m/s 725 mmHg 68%
    13:00 +10°C° 0.1 mm 2 m/s 725 mmHg 63%
    14:00 +10°C° 0 mm 2 m/s 725 mmHg 65%
    15:00 +10°C° 0 mm 1 m/s 724 mmHg 67%
    16:00 +9°C° 0 mm 0 m/s 724 mmHg 68%
    17:00 +9°C° 0 mm 1 m/s 724 mmHg 70%
    18:00 +8°C° 0 mm 1 m/s 724 mmHg 71%
    19:00 +7°C° 0 mm 2 m/s 724 mmHg 73%
    20:00 +6°C° 0 mm 2 m/s 723 mmHg 75%
    21:00 +6°C° 0 mm 2 m/s 723 mmHg 76%
    22:00 +6°C° 0 mm 2 m/s 723 mmHg 78%
    23:00 +6°C° 0.4 mm 2 m/s 722 mmHg 79%

    24 Ianuarie, Joi

    Timp Temperatura Precipitaţii Vânt Presiune Umiditate
    00:00 +6°C° 0.4 mm 2 m/s 722 mmHg 81%
    01:00 +6°C° 0.4 mm 2 m/s 721 mmHg 82%
    02:00 +6°C° 0.5 mm 2 m/s 721 mmHg 83%
    03:00 +6°C° 0.5 mm 2 m/s 720 mmHg 84%
    04:00 +6°C° 0.5 mm 2 m/s 719 mmHg 85%
    05:00 +6°C° 0.1 mm 2 m/s 719 mmHg 84%
    06:00 +6°C° 0.1 mm 2 m/s 719 mmHg 84%
    07:00 +6°C° 0.1 mm 2 m/s 719 mmHg 84%
    08:00 +6°C° 0 mm 2 m/s 719 mmHg 82%
    09:00 +7°C° 0 mm 2 m/s 719 mmHg 80%
    10:00 +8°C° 0 mm 2 m/s 719 mmHg 78%
    11:00 +10°C° 0 mm 1 m/s 719 mmHg 77%
    12:00 +10°C° 0 mm 1 m/s 719 mmHg 76%
    13:00 +11°C° 0 mm 1 m/s 719 mmHg 75%
    14:00 +10°C° 0.2 mm 1 m/s 719 mmHg 79%
    15:00 +10°C° 0.2 mm 1 m/s 719 mmHg 82%
    16:00 +9°C° 0.2 mm 1 m/s 719 mmHg 86%
    17:00 +9°C° 0.1 mm 1 m/s 719 mmHg 85%
    18:00 +7°C° 0.1 mm 2 m/s 720 mmHg 85%
    19:00 +7°C° 0.1 mm 2 m/s 720 mmHg 85%
    20:00 +7°C° 0 mm 2 m/s 720 mmHg 84%
    21:00 +6°C° 0 mm 2 m/s 720 mmHg 83%
    22:00 +6°C° 0 mm 2 m/s 721 mmHg 82%
    23:00 +6°C° 0 mm 2 m/s 721 mmHg 82%

    25 Ianuarie, Vineri

    Timp Temperatura Precipitaţii Vânt Presiune Umiditate
    00:00 +5°C° 0 mm 3 m/s 721 mmHg 82%
    01:00 +4°C° 0 mm 3 m/s 721 mmHg 81%
    02:00 +4°C° 0.4 mm 3 m/s 721 mmHg 83%
    03:00 +5°C° 0.4 mm 2 m/s 721 mmHg 85%
    04:00 +5°C° 0.4 mm 2 m/s 721 mmHg 86%
    05:00 +5°C° 0.7 mm 2 m/s 721 mmHg 86%
    06:00 +5°C° 0.7 mm 2 m/s 722 mmHg 87%
    07:00 +5°C° 0.7 mm 2 m/s 722 mmHg 87%
    08:00 +6°C° 0.7 mm 2 m/s 722 mmHg 86%
    09:00 +6°C° 0.7 mm 2 m/s 723 mmHg 86%
    10:00 +7°C° 0.7 mm 2 m/s 723 mmHg 85%
    11:00 +7°C° 0.2 mm 2 m/s 723 mmHg 82%
    12:00 +8°C° 0.2 mm 2 m/s 723 mmHg 79%
    13:00 +10°C° 0.2 mm 1 m/s 723 mmHg 76%
    14:00 +9°C° 0.1 mm 1 m/s 723 mmHg 78%
    15:00 +9°C° 0.1 mm 1 m/s 723 mmHg 79%
    16:00 +9°C° 0.1 mm 1 m/s 723 mmHg 80%
    17:00 +8°C° 0 mm 1 m/s 723 mmHg 81%
    18:00 +6°C° 0 mm 2 m/s 723 mmHg 82%
    19:00 +6°C° 0 mm 2 m/s 723 mmHg 82%
    20:00 +5°C° 0 mm 2 m/s 724 mmHg 82%
    21:00 +5°C° 0 mm 2 m/s 724 mmHg 81%
    22:00 +4°C° 0 mm 2 m/s 724 mmHg 81%
    23:00 +4°C° 0 mm 2 m/s 724 mmHg 81%

    26 Ianuarie, Sâmbătă

    Timp Temperatura Precipitaţii Vânt Presiune Umiditate
    00:00 +4°C° 0 mm 2 m/s 724 mmHg 80%
    01:00 +2°C° 0 mm 3 m/s 724 mmHg 80%
    02:00 +2°C° 0 mm 3 m/s 724 mmHg 80%
    03:00 +1°C° 0 mm 3 m/s 724 mmHg 80%
    04:00 +1°C° 0 mm 3 m/s 724 mmHg 80%
    05:00 +1°C° 0 mm 3 m/s 724 mmHg 80%
    06:00 +1°C° 0 mm 3 m/s 725 mmHg 79%
    07:00 +1°C° 0 mm 3 m/s 725 mmHg 78%
    08:00 +2°C° 0 mm 3 m/s 725 mmHg 74%
    09:00 +4°C° 0 mm 2 m/s 726 mmHg 69%
    10:00 +6°C° 0 mm 2 m/s 726 mmHg 64%
    11:00 +7°C° 0 mm 2 m/s 726 mmHg 62%
    12:00 +7°C° 0 mm 2 m/s 726 mmHg 59%
    13:00 +9°C° 0 mm 1 m/s 726 mmHg 57%
    14:00 +9°C° 0 mm 1 m/s 726 mmHg 60%
    15:00 +8°C° 0 mm 1 m/s 726 mmHg 63%
    16:00 +8°C° 0 mm 1 m/s 727 mmHg 66%
    17:00 +7°C° 0 mm 1 m/s 727 mmHg 69%
    18:00 +6°C° 0 mm 1 m/s 727 mmHg 71%
    19:00 +4°C° 0 mm 1 m/s 727 mmHg 74%
    20:00 +3°C° 0 mm 2 m/s 728 mmHg 74%
    21:00 +3°C° 0 mm 2 m/s 728 mmHg 75%
    22:00 +2°C° 0 mm 2 m/s 728 mmHg 76%
    23:00 +2°C° 0 mm 2 m/s 728 mmHg 75%
    Arată mai mult